Location: Newark
(12.4436°N, 0.6167°W)
Time: 13:10:20
(UTC+00:00)

Transit 2A Rocket - All Passes

Search period start: 15 December 2019 00:00
Search period end: 25 December 2019 00:00
Orbit: 594 x 909 km, 66.7° (Epoch: 14 December)

Date Brightness Start Highest point End Pass type
(mag) Time Alt. Az. Time Alt. Az. Time Alt. Az.
15 Dec - 01:37:59 10° NNW 01:42:51 64° WSW 01:48:11 10° S night (unlit)
15 Dec - 14:15:53 10° SSW 14:20:47 58° WNW 14:25:18 10° N daylight
16 Dec - 00:55:33 10° N 01:00:23 60° ENE 01:05:41 10° SSE night (unlit)
16 Dec - 13:33:22 10° S 13:38:20 62° ESE 13:42:52 10° NNE daylight
17 Dec - 00:13:43 10° N 00:17:55 28° ENE 00:22:26 10° SE night (unlit)
17 Dec - 01:56:46 10° WNW 02:00:15 19° WSW 02:03:56 10° SSW night (unlit)
17 Dec - 12:51:36 10° SSE 12:55:50 28° ESE 12:59:47 10° NE daylight
17 Dec - 14:35:17 10° WSW 14:38:09 16° WNW 14:40:54 10° NNW daylight
17 Dec - 23:32:59 10° NE 23:35:25 14° ENE 23:37:55 10° E night (unlit)
18 Dec - 01:13:08 10° NW 01:17:44 38° WSW 01:22:46 10° S night (unlit)
18 Dec - 12:11:14 10° SE 12:13:21 13° ESE 12:15:23 10° E daylight
18 Dec - 13:51:14 10° SW 13:55:39 34° WNW 13:59:47 10° N daylight
19 Dec - 00:30:19 10° NNW 00:35:15 83° WSW 00:40:43 10° SSE night (unlit)
19 Dec - 13:08:14 10° SSW 13:13:12 77° WNW 13:17:45 10° NNE daylight
19 Dec - 23:48:04 10° N 23:52:48 46° ENE 23:57:58 10° SE night (unlit)
20 Dec - 01:33:38 10° W 01:35:10 11° WSW 01:36:44 10° SW night (unlit)
20 Dec - 12:25:58 10° S 12:30:44 46° ESE 12:35:07 10° NE daylight
20 Dec - 23:06:29 10° NNE 23:10:19 22° ENE 23:14:24 10° ESE night (unlit)
21 Dec - 00:48:36 10° WNW 00:52:39 24° WSW 00:57:00 10° SSW night (unlit)
21 Dec - 11:44:32 10° SSE 11:48:14 21° ESE 11:51:44 10° ENE daylight
21 Dec - 13:27:00 10° WSW 13:30:32 20° WNW 13:33:54 10° NNW daylight
21 Dec - 22:27:07 10° ENE 22:27:47 10° ENE 22:28:27 10° ENE night (unlit)
22 Dec - 00:05:19 10° NW 00:10:09 50° WSW 00:15:28 10° S night (unlit)
22 Dec - 12:43:24 10° SW 12:48:04 44° WNW 12:52:23 10° N daylight
22 Dec - 23:22:42 10° NNW 23:27:41 77° ENE 23:33:09 10° SSE night (unlit)
23 Dec - 12:00:40 10° SSW 12:05:36 80° ESE 12:10:07 10° NNE daylight
23 Dec - 22:40:40 10° N 22:45:13 36° ENE 22:50:10 10° SE night (unlit)
24 Dec - 00:24:40 10° WNW 00:27:34 15° WSW 00:30:36 10° SW night (unlit)
24 Dec - 11:18:39 10° S 11:23:08 35° ESE 11:27:16 10° NE daylight
24 Dec - 13:03:43 10° W 13:05:26 12° WNW 13:07:08 10° NW daylight
24 Dec - 21:59:24 10° NNE 22:02:44 18° ENE 22:06:13 10° ESE night (unlit)
24 Dec - 23:40:36 10° NW 23:45:04 31° WSW 23:49:53 10° S night (unlit)
